Time,TemperatureF,DewpointF,PressureIn,WindDirection,WindDirectionDegrees,WindSpeedMPH,WindSpeedGustMPH,Humidity,HourlyPrecipIn,Conditions,Clouds,dailyrainin,SoftwareType,DateUTC
2013-04-13 00:00:00,39.0,35.2,29.93,SW,229,8.0,8.0,86,0.00,,,0.14,Wunderground v.1.15,2013-04-13 04:00:00,
2013-04-13 00:01:00,39.0,35.2,29.93,SW,225,8.0,13.0,86,0.00,,,0.00,Wunderground v.1.15,2013-04-13 04:01:00,
2013-04-13 00:03:00,38.9,35.1,29.93,South,177,8.0,13.0,86,0.00,,,0.00,Wunderground v.1.15,2013-04-13 04:03:00,
2013-04-13 00:05:00,39.0,35.2,29.93,SSW,208,7.0,13.0,86,0.00,,,0.00,Wunderground v.1.15,2013-04-13 04:05:00,
2013-04-13 00:12:00,39.0,35.2,29.93,SW,229,7.0,13.0,86,0.00,,,0.00,Wunderground v.1.15,2013-04-13 04:12:00,
2013-04-13 00:17:00,39.0,34.9,29.93,WNW,284,7.0,13.0,85,0.00,,,0.00,Wunderground v.1.15,2013-04-13 04:17:00,
2013-04-13 00:23:00,39.0,35.2,29.93,South,184,7.0,11.0,86,0.00,,,0.00,Wunderground v.1.15,2013-04-13 04:23:00,
2013-04-13 00:29:00,39.0,35.2,29.93,NW,306,7.0,11.0,86,0.00,,,0.00,Wunderground v.1.15,2013-04-13 04:29:00,
2013-04-13 00:35:00,39.0,34.9,29.93,SSW,208,7.0,18.0,85,0.00,,,0.00,Wunderground v.1.15,2013-04-13 04:35:00,
2013-04-13 00:42:00,38.9,35.1,29.93,SSW,207,7.0,18.0,86,0.00,,,0.00,Wunderground v.1.15,2013-04-13 04:42:00,
2013-04-13 00:48:00,38.9,35.1,29.93,WSW,238,7.0,18.0,86,0.00,,,0.00,Wunderground v.1.15,2013-04-13 04:48:00,
2013-04-13 00:54:00,38.9,35.1,29.93,SW,228,8.0,18.0,86,0.00,,,0.00,Wunderground v.1.15,2013-04-13 04:54:00,
2013-04-13 01:00:00,38.9,34.5,29.94,SW,225,10.0,10.0,84,0.00,,,0.00,Wunderground v.1.15,2013-04-13 05:00:00,
2013-04-13 01:07:00,38.8,34.4,29.94,South,191,8.0,16.0,84,0.00,,,0.00,Wunderground v.1.15,2013-04-13 05:07:00,
2013-04-13 01:13:00,38.8,34.4,29.94,WSW,240,8.0,10.0,84,0.00,,,0.00,Wunderground v.1.15,2013-04-13 05:13:00,
2013-04-13 01:19:00,38.8,34.4,29.94,SW,229,8.0,11.0,84,0.00,,,0.00,Wunderground v.1.15,2013-04-13 05:19:00,
2013-04-13 01:25:00,38.8,34.7,29.94,SW,229,9.0,12.0,85,0.00,,,0.00,Wunderground v.1.15,2013-04-13 05:25:00,
2013-04-13 01:31:00,38.7,34.6,29.94,West,278,8.0,17.0,85,0.00,,,0.00,Wunderground v.1.15,2013-04-13 05:31:00,
2013-04-13 01:36:00,38.7,34.9,29.94,SSW,210,8.0,17.0,86,0.00,,,0.00,Wunderground v.1.15,2013-04-13 05:36:00,
2013-04-13 01:41:00,38.7,34.9,29.95,WSW,240,8.0,13.0,86,0.00,,,0.00,Wunderground v.1.15,2013-04-13 05:41:00,
2013-04-13 01:47:00,38.6,35.1,29.95,SW,223,9.0,17.0,87,0.00,,,0.00,Wunderground v.1.15,2013-04-13 05:47:00,
2013-04-13 01:52:00,38.5,35.3,29.95,SW,233,10.0,17.0,88,0.00,,,0.00,Wunderground v.1.15,2013-04-13 05:52:00,
2013-04-13 01:58:00,38.4,35.2,29.95,SW,232,9.0,17.0,88,0.00,,,0.00,Wunderground v.1.15,2013-04-13 05:58:00,
2013-04-13 02:03:00,38.4,35.2,29.95,SW,225,8.0,11.0,88,0.00,,,0.00,Wunderground v.1.15,2013-04-13 06:03:00,
2013-04-13 02:08:00,38.4,35.2,29.95,SSW,207,8.0,12.0,88,0.00,,,0.00,Wunderground v.1.15,2013-04-13 06:08:00,
2013-04-13 02:14:00,38.4,35.4,29.94,SW,231,8.0,10.0,89,0.00,,,0.00,Wunderground v.1.15,2013-04-13 06:14:00,
2013-04-13 02:19:00,38.3,35.1,29.94,WSW,245,8.0,11.0,88,0.00,,,0.00,Wunderground v.1.15,2013-04-13 06:19:00,
2013-04-13 02:24:00,38.3,35.3,29.94,SSW,210,8.0,9.0,89,0.00,,,0.00,Wunderground v.1.15,2013-04-13 06:24:00,
2013-04-13 02:30:00,38.2,35.2,29.94,SW,222,7.0,7.0,89,0.00,,,0.00,Wunderground v.1.15,2013-04-13 06:30:00,
2013-04-13 02:35:00,38.1,35.1,29.94,SW,224,6.0,16.0,89,0.00,,,0.00,Wunderground v.1.15,2013-04-13 06:35:00,
2013-04-13 02:40:00,38.2,35.2,29.94,SSW,198,7.0,7.0,89,0.00,,,0.00,Wunderground v.1.15,2013-04-13 06:40:00,
2013-04-13 02:46:00,38.2,35.2,29.94,SW,225,7.0,16.0,89,0.00,,,0.00,Wunderground v.1.15,2013-04-13 06:46:00,
2013-04-13 02:52:00,38.4,35.4,29.94,WSW,242,9.0,16.0,89,0.00,,,0.00,Wunderground v.1.15,2013-04-13 06:52:00,
2013-04-13 02:58:00,38.4,35.4,29.94,SW,231,8.0,16.0,89,0.00,,,0.00,Wunderground v.1.15,2013-04-13 06:58:00,
2013-04-13 03:03:00,38.4,35.4,29.94,WSW,250,7.0,10.0,89,0.00,,,0.00,Wunderground v.1.15,2013-04-13 07:03:00,
2013-04-13 03:08:00,38.4,35.7,29.94,SSW,205,8.0,11.0,90,0.00,,,0.00,Wunderground v.1.15,2013-04-13 07:08:00,
2013-04-13 03:13:00,38.4,35.4,29.93,WSW,248,7.0,8.0,89,0.00,,,0.00,Wunderground v.1.15,2013-04-13 07:13:00,
2013-04-13 03:19:00,38.5,35.5,29.93,SSW,212,8.0,12.0,89,0.00,,,0.00,Wunderground v.1.15,2013-04-13 07:19:00,
2013-04-13 03:24:00,38.5,35.5,29.93,SSW,198,9.0,9.0,89,0.00,,,0.00,Wunderground v.1.15,2013-04-13 07:24:00,
2013-04-13 03:29:00,38.6,35.6,29.93,SW,229,8.0,11.0,89,0.00,,,0.00,Wunderground v.1.15,2013-04-13 07:29:00,
2013-04-13 03:34:00,38.7,35.7,29.93,SW,226,8.0,14.0,89,0.00,,,0.00,Wunderground v.1.15,2013-04-13 07:34:00,
2013-04-13 03:40:00,38.7,35.7,29.93,WSW,256,8.0,14.0,89,0.00,,,0.00,Wunderground v.1.15,2013-04-13 07:40:00,
2013-04-13 03:46:00,38.8,35.6,29.93,SW,222,9.0,15.0,88,0.00,,,0.00,Wunderground v.1.15,2013-04-13 07:46:00,
2013-04-13 03:52:00,38.9,35.6,29.93,SW,225,8.0,14.0,88,0.00,,,0.00,Wunderground v.1.15,2013-04-13 07:52:00,
2013-04-13 03:58:00,38.9,35.6,29.93,SW,232,8.0,14.0,88,0.00,,,0.00,Wunderground v.1.15,2013-04-13 07:58:00,
2013-04-13 04:03:00,38.9,35.6,29.93,SW,233,9.0,12.0,88,0.00,,,0.00,Wunderground v.1.15,2013-04-13 08:03:00,
2013-04-13 04:09:00,38.9,35.6,29.93,WSW,245,10.0,13.0,88,0.00,,,0.00,Wunderground v.1.15,2013-04-13 08:09:00,
2013-04-13 04:15:00,39.0,35.5,29.93,West,264,10.0,12.0,87,0.00,,,0.00,Wunderground v.1.15,2013-04-13 08:15:00,
2013-04-13 04:20:00,39.0,35.5,29.93,SW,233,10.0,13.0,87,0.00,,,0.00,Wunderground v.1.15,2013-04-13 08:20:00,
2013-04-13 04:26:00,39.1,35.6,29.93,SW,218,12.0,15.0,87,0.00,,,0.00,Wunderground v.1.15,2013-04-13 08:26:00,
2013-04-13 04:32:00,38.8,35.0,29.94,WSW,255,11.0,16.0,86,0.00,,,0.00,Wunderground v.1.15,2013-04-13 08:32:00,
2013-04-13 04:37:00,37.7,34.2,29.94,WNW,296,10.0,16.0,87,0.00,,,0.00,Wunderground v.1.15,2013-04-13 08:37:00,
2013-04-13 04:44:00,36.8,33.9,29.94,West,277,10.0,18.0,89,0.00,,,0.00,Wunderground v.1.15,2013-04-13 08:44:00,
2013-04-13 04:49:00,36.6,33.9,29.94,SSW,205,8.0,18.0,90,0.00,,,0.00,Wunderground v.1.15,2013-04-13 08:49:00,
2013-04-13 04:54:00,36.5,33.8,29.94,South,170,7.0,16.0,90,0.00,,,0.00,Wunderground v.1.15,2013-04-13 08:54:00,
2013-04-13 04:59:00,36.3,33.6,29.94,WNW,302,7.0,16.0,90,0.00,,,0.00,Wunderground v.1.15,2013-04-13 08:59:00,
2013-04-13 05:05:00,36.2,33.8,29.94,SSE,162,7.0,9.0,91,0.00,,,0.00,Wunderground v.1.15,2013-04-13 09:05:00,
2013-04-13 05:10:00,36.2,33.8,29.94,West,269,6.0,6.0,91,0.00,,,0.00,Wunderground v.1.15,2013-04-13 09:10:00,
2013-04-13 05:17:00,36.1,33.5,29.94,SSE,163,7.0,11.0,90,0.00,,,0.00,Wunderground v.1.15,2013-04-13 09:17:00,
2013-04-13 05:23:00,36.0,33.4,29.94,NW,315,7.0,8.0,90,0.00,,,0.00,Wunderground v.1.15,2013-04-13 09:23:00,
2013-04-13 05:28:00,36.0,33.4,29.94,NW,319,6.0,8.0,90,0.00,,,0.00,Wunderground v.1.15,2013-04-13 09:28:00,
2013-04-13 05:34:00,35.9,33.3,29.94,ESE,107,6.0,18.0,90,0.00,,,0.00,Wunderground v.1.15,2013-04-13 09:34:00,
2013-04-13 05:40:00,35.9,33.3,29.94,WNW,284,6.0,18.0,90,0.00,,,0.00,Wunderground v.1.15,2013-04-13 09:40:00,
2013-04-13 05:45:00,35.9,33.3,29.94,NNW,342,7.0,18.0,90,0.00,,,0.00,Wunderground v.1.15,2013-04-13 09:45:00,
2013-04-13 05:50:00,36.0,33.6,29.93,South,172,5.0,5.0,91,0.00,,,0.00,Wunderground v.1.15,2013-04-13 09:50:00,
2013-04-13 05:57:00,36.0,33.6,29.93,NW,315,4.0,18.0,91,0.00,,,0.00,Wunderground v.1.15,2013-04-13 09:57:00,
2013-04-13 06:02:00,36.0,33.4,29.93,SSW,207,5.0,6.0,90,0.00,,,0.00,Wunderground v.1.15,2013-04-13 10:02:00,
2013-04-13 06:08:00,36.1,33.2,29.94,SSW,192,6.0,14.0,89,0.00,,,0.00,Wunderground v.1.15,2013-04-13 10:08:00,
2013-04-13 06:14:00,36.3,33.4,29.94,South,177,7.0,11.0,89,0.00,,,0.00,Wunderground v.1.15,2013-04-13 10:14:00,
2013-04-13 06:20:00,36.3,33.6,29.94,West,279,6.0,6.0,90,0.00,,,0.00,Wunderground v.1.15,2013-04-13 10:20:00,
2013-04-13 06:25:00,36.3,33.4,29.94,SE,146,5.0,8.0,89,0.00,,,0.00,Wunderground v.1.15,2013-04-13 10:25:00,
2013-04-13 06:33:00,36.3,33.4,29.94,SW,214,6.0,17.0,89,0.00,,,0.00,Wunderground v.1.15,2013-04-13 10:33:00,
2013-04-13 06:38:00,36.3,33.4,29.94,SE,137,6.0,17.0,89,0.00,,,0.00,Wunderground v.1.15,2013-04-13 10:38:00,
2013-04-13 06:44:00,36.4,33.5,29.94,South,191,8.0,17.0,89,0.00,,,0.00,Wunderground v.1.15,2013-04-13 10:44:00,
2013-04-13 06:50:00,36.3,33.6,29.93,SW,223,6.0,6.0,90,0.00,,,0.00,Wunderground v.1.15,2013-04-13 10:50:00,
2013-04-13 06:56:00,36.3,33.6,29.94,SSW,199,5.0,17.0,90,0.00,,,0.00,Wunderground v.1.15,2013-04-13 10:56:00,
2013-04-13 07:02:00,36.4,33.7,29.93,SW,215,6.0,6.0,90,0.00,,,0.00,Wunderground v.1.15,2013-04-13 11:02:00,
2013-04-13 07:07:00,36.5,33.6,29.93,WSW,246,6.0,10.0,89,0.00,,,0.00,Wunderground v.1.15,2013-04-13 11:07:00,
2013-04-13 07:12:00,36.6,33.7,29.93,WSW,238,6.0,6.0,89,0.00,,,0.00,Wunderground v.1.15,2013-04-13 11:12:00,
2013-04-13 07:17:00,36.7,34.0,29.94,SW,236,6.0,10.0,90,0.00,,,0.00,Wunderground v.1.15,2013-04-13 11:17:00,
2013-04-13 07:23:00,36.8,34.1,29.94,SW,231,7.0,10.0,90,0.00,,,0.00,Wunderground v.1.15,2013-04-13 11:23:00,
2013-04-13 07:29:00,36.8,33.9,29.94,NNW,329,8.0,12.0,89,0.00,,,0.00,Wunderground v.1.15,2013-04-13 11:29:00,
2013-04-13 07:35:00,36.8,34.1,29.94,WSW,243,8.0,14.0,90,0.00,,,0.00,Wunderground v.1.15,2013-04-13 11:35:00,
2013-04-13 07:42:00,36.9,34.2,29.94,WSW,250,7.0,14.0,90,0.00,,,0.00,Wunderground v.1.15,2013-04-13 11:42:00,
2013-04-13 07:48:00,37.1,34.4,29.95,WSW,240,7.0,14.0,90,0.00,,,0.00,Wunderground v.1.15,2013-04-13 11:48:00,
2013-04-13 07:54:00,37.2,34.3,29.95,SW,231,7.0,14.0,89,0.00,,,0.00,Wunderground v.1.15,2013-04-13 11:54:00,
2013-04-13 08:02:00,37.5,34.6,29.95,SSW,192,8.0,8.0,89,0.00,,,0.00,Wunderground v.1.15,2013-04-13 12:02:00,
2013-04-13 08:07:00,37.7,34.5,29.94,WSW,242,8.0,12.0,88,0.00,,,0.00,Wunderground v.1.15,2013-04-13 12:07:00,
2013-04-13 08:13:00,37.9,34.4,29.95,WSW,248,8.0,14.0,87,0.00,,,0.00,Wunderground v.1.15,2013-04-13 12:13:00,
2013-04-13 08:19:00,38.2,34.4,29.95,WNW,297,9.0,14.0,86,0.00,,,0.00,Wunderground v.1.15,2013-04-13 12:19:00,
2013-04-13 08:25:00,38.3,33.9,29.95,WSW,240,10.0,16.0,84,0.00,,,0.00,Wunderground v.1.15,2013-04-13 12:25:00,
2013-04-13 08:30:00,38.5,33.8,29.95,NNW,333,11.0,12.0,83,0.00,,,0.00,Wunderground v.1.15,2013-04-13 12:30:00,
2013-04-13 08:36:00,38.6,33.9,29.95,SSW,210,12.0,17.0,83,0.00,,,0.00,Wunderground v.1.15,2013-04-13 12:36:00,
2013-04-13 08:42:00,38.7,33.7,29.95,WSW,250,12.0,15.0,82,0.00,,,0.00,Wunderground v.1.15,2013-04-13 12:42:00,
2013-04-13 08:47:00,38.9,33.9,29.95,ESE,120,10.0,15.0,82,0.00,,,0.00,Wunderground v.1.15,2013-04-13 12:47:00,
2013-04-13 08:53:00,39.0,34.0,29.95,SW,228,11.0,18.0,82,0.00,,,0.00,Wunderground v.1.15,2013-04-13 12:53:00,
2013-04-13 09:00:00,39.1,34.4,29.95,SSW,208,10.0,10.0,83,0.00,,,0.00,Wunderground v.1.15,2013-04-13 13:00:00,
2013-04-13 09:06:00,39.1,34.1,29.95,West,274,9.0,16.0,82,0.00,,,0.00,Wunderground v.1.15,2013-04-13 13:06:00,
2013-04-13 09:12:00,39.1,33.5,29.95,WSW,252,12.0,14.0,80,0.00,,,0.00,Wunderground v.1.15,2013-04-13 13:12:00,
2013-04-13 09:17:00,39.1,33.1,29.95,SW,235,13.0,21.0,79,0.00,,,0.00,Wunderground v.1.15,2013-04-13 13:17:00,
2013-04-13 09:24:00,39.1,32.8,29.95,SW,228,14.0,18.0,78,0.00,,,0.00,Wunderground v.1.15,2013-04-13 13:24:00,
2013-04-13 09:30:00,39.1,33.1,29.95,SW,217,15.0,15.0,79,0.00,,,0.00,Wunderground v.1.15,2013-04-13 13:30:00,
2013-04-13 09:35:00,39.2,33.2,29.95,SW,233,13.0,22.0,79,0.00,,,0.00,Wunderground v.1.15,2013-04-13 13:35:00,
2013-04-13 09:43:00,39.2,32.6,29.95,SW,236,12.0,18.0,77,0.00,,,0.00,Wunderground v.1.15,2013-04-13 13:43:00,
2013-04-13 09:49:00,39.2,32.3,29.95,SSW,210,13.0,23.0,76,0.00,,,0.00,Wunderground v.1.15,2013-04-13 13:49:00,
2013-04-13 09:54:00,39.3,32.0,29.95,South,169,14.0,18.0,75,0.00,,,0.00,Wunderground v.1.15,2013-04-13 13:54:00,
2013-04-13 09:59:00,39.2,31.9,29.96,SW,226,15.0,24.0,75,0.00,,,0.00,Wunderground v.1.15,2013-04-13 13:59:00,
2013-04-13 10:05:00,39.3,32.7,29.95,SW,224,16.0,16.0,77,0.00,,,0.00,Wunderground v.1.15,2013-04-13 14:05:00,
2013-04-13 10:10:00,39.3,32.7,29.96,SW,221,13.0,13.0,77,0.00,,,0.00,Wunderground v.1.15,2013-04-13 14:10:00,
2013-04-13 10:15:00,39.3,32.7,29.96,SW,222,15.0,20.0,77,0.00,,,0.00,Wunderground v.1.15,2013-04-13 14:15:00,
2013-04-13 10:21:00,39.4,32.8,29.96,SW,223,14.0,14.0,77,0.00,,,0.00,Wunderground v.1.15,2013-04-13 14:21:00,
2013-04-13 10:27:00,39.4,32.5,29.96,SW,228,12.0,20.0,76,0.00,,,0.00,Wunderground v.1.15,2013-04-13 14:27:00,
2013-04-13 10:32:00,39.5,31.9,29.96,NW,323,11.0,22.0,74,0.00,,,0.00,Wunderground v.1.15,2013-04-13 14:32:00,
2013-04-13 10:39:00,39.7,32.1,29.96,ENE,68,11.0,22.0,74,0.00,,,0.00,Wunderground v.1.15,2013-04-13 14:39:00,
2013-04-13 10:44:00,39.7,32.4,29.97,SW,229,10.0,22.0,75,0.00,,,0.00,Wunderground v.1.15,2013-04-13 14:44:00,
2013-04-13 10:50:00,39.6,32.0,29.97,SSE,149,12.0,12.0,74,0.00,,,0.00,Wunderground v.1.15,2013-04-13 14:50:00,
2013-04-13 10:55:00,39.4,31.8,29.97,SW,233,12.0,24.0,74,0.00,,,0.00,Wunderground v.1.15,2013-04-13 14:55:00,
2013-04-13 11:00:00,39.2,31.6,29.97,WSW,241,13.0,13.0,74,0.00,,,0.00,Wunderground v.1.15,2013-04-13 15:00:00,
2013-04-13 11:07:00,39.1,31.8,29.97,West,263,12.0,16.0,75,0.00,,,0.00,Wunderground v.1.15,2013-04-13 15:07:00,
2013-04-13 11:12:00,39.0,32.1,29.98,SW,229,12.0,12.0,76,0.00,,,0.00,Wunderground v.1.15,2013-04-13 15:12:00,
2013-04-13 11:18:00,38.9,32.0,29.98,SW,217,13.0,13.0,76,0.00,,,0.00,Wunderground v.1.15,2013-04-13 15:18:00,
2013-04-13 11:25:00,38.9,32.3,29.98,SSW,195,11.0,17.0,77,0.00,,,0.00,Wunderground v.1.15,2013-04-13 15:25:00,
2013-04-13 11:30:00,38.9,32.6,29.98,NNE,19,10.0,10.0,78,0.00,,,0.00,Wunderground v.1.15,2013-04-13 15:30:00,
2013-04-13 11:36:00,38.9,32.6,29.98,WSW,240,9.0,28.0,78,0.00,,,0.00,Wunderground v.1.15,2013-04-13 15:36:00,
2013-04-13 11:45:00,38.7,32.7,29.98,SSW,204,11.0,28.0,79,0.00,,,0.00,Wunderground v.1.15,2013-04-13 15:45:00,
2013-04-13 11:53:00,38.7,33.1,29.99,NE,53,9.0,28.0,80,0.00,,,0.00,Wunderground v.1.15,2013-04-13 15:53:00,
2013-04-13 11:59:00,38.5,33.2,29.99,WNW,300,10.0,28.0,81,0.00,,,0.00,Wunderground v.1.15,2013-04-13 15:59:00,
2013-04-13 12:05:00,37.8,33.4,29.99,NW,306,10.0,15.0,84,0.00,,,0.00,Wunderground v.1.15,2013-04-13 16:05:00,
2013-04-13 12:10:00,37.4,33.3,29.99,ENE,66,10.0,10.0,85,0.00,,,0.00,Wunderground v.1.15,2013-04-13 16:10:00,
2013-04-13 12:19:00,36.6,32.8,30.00,East,101,10.0,17.0,86,0.00,,,0.00,Wunderground v.1.15,2013-04-13 16:19:00,
2013-04-13 12:25:00,36.4,32.6,30.00,SSW,203,11.0,12.0,86,0.00,,,0.00,Wunderground v.1.15,2013-04-13 16:25:00,
2013-04-13 12:30:00,36.4,32.9,30.00,WSW,256,8.0,8.0,87,0.00,,,0.00,Wunderground v.1.15,2013-04-13 16:30:00,
2013-04-13 12:37:00,36.4,32.9,30.00,NNW,328,6.0,23.0,87,0.00,,,0.00,Wunderground v.1.15,2013-04-13 16:37:00,
2013-04-13 12:42:00,36.1,32.3,30.00,NNW,344,9.0,23.0,86,0.00,,,0.00,Wunderground v.1.15,2013-04-13 16:42:00,
2013-04-13 12:48:00,36.0,31.6,30.00,ESE,122,10.0,23.0,84,0.00,,,0.00,Wunderground v.1.15,2013-04-13 16:48:00,
2013-04-13 12:53:00,36.0,31.0,30.00,SSW,204,10.0,23.0,82,0.00,,,0.00,Wunderground v.1.15,2013-04-13 16:53:00,
2013-04-13 13:00:00,36.3,31.6,30.01,NNE,15,8.0,8.0,83,0.00,,,0.00,Wunderground v.1.15,2013-04-13 17:00:00,
2013-04-13 13:08:00,36.6,31.0,30.01,NNE,15,7.0,11.0,80,0.00,,,0.00,Wunderground v.1.15,2013-04-13 17:08:00,
2013-04-13 13:13:00,36.8,30.6,30.01,WSW,250,8.0,14.0,78,0.00,,,0.00,Wunderground v.1.15,2013-04-13 17:13:00,
2013-04-13 13:19:00,36.9,30.7,30.01,SSW,194,9.0,14.0,78,0.00,,,0.00,Wunderground v.1.15,2013-04-13 17:19:00,
2013-04-13 13:24:00,37.1,30.6,30.01,SSW,201,9.0,12.0,77,0.00,,,0.00,Wunderground v.1.15,2013-04-13 17:24:00,
2013-04-13 13:30:00,37.3,30.7,30.01,SSW,199,8.0,9.0,77,0.00,,,0.00,Wunderground v.1.15,2013-04-13 17:30:00,
2013-04-13 13:35:00,37.7,31.5,30.01,WSW,250,9.0,22.0,78,0.00,,,0.00,Wunderground v.1.15,2013-04-13 17:35:00,
2013-04-13 13:42:00,37.8,31.2,30.01,SSW,193,11.0,22.0,77,0.00,,,0.00,Wunderground v.1.15,2013-04-13 17:42:00,
2013-04-13 13:47:00,38.1,31.5,30.01,NNE,32,11.0,22.0,77,0.00,,,0.00,Wunderground v.1.15,2013-04-13 17:47:00,
2013-04-13 13:54:00,38.5,31.6,30.01,South,183,9.0,22.0,76,0.00,,,0.00,Wunderground v.1.15,2013-04-13 17:54:00,
2013-04-13 13:59:00,39.2,32.3,30.01,SW,221,8.0,22.0,76,0.00,,,0.00,Wunderground v.1.15,2013-04-13 17:59:00,
2013-04-13 14:05:00,39.7,31.4,30.02,SW,229,10.0,17.0,72,0.00,,,0.00,Wunderground v.1.15,2013-04-13 18:05:00,
2013-04-13 14:10:00,39.9,31.6,30.01,WSW,249,12.0,12.0,72,0.00,,,0.00,Wunderground v.1.15,2013-04-13 18:10:00,
2013-04-13 14:18:00,39.9,31.3,30.02,WSW,255,11.0,18.0,71,0.00,,,0.00,Wunderground v.1.15,2013-04-13 18:18:00,
2013-04-13 14:23:00,40.1,31.4,30.02,SW,226,12.0,16.0,71,0.00,,,0.00,Wunderground v.1.15,2013-04-13 18:23:00,
2013-04-13 14:27:00,39.9,30.5,30.02,WNW,294,13.0,25.0,69,0.00,,,0.00,Wunderground v.1.15,2013-04-13 18:27:00,
2013-04-13 14:28:00,40.0,30.6,30.02,WSW,243,13.0,25.0,69,0.00,,,0.00,Wunderground v.1.15,2013-04-13 18:28:00,
2013-04-13 14:29:00,39.9,29.8,30.02,SSW,212,13.0,25.0,67,0.00,,,0.00,Wunderground v.1.15,2013-04-13 18:29:00,
2013-04-13 14:32:00,39.9,29.8,30.02,SW,232,13.0,21.0,67,0.00,,,0.00,Wunderground v.1.15,2013-04-13 18:32:00,
2013-04-13 14:38:00,39.7,29.6,30.02,West,267,12.0,21.0,67,0.00,,,0.00,Wunderground v.1.15,2013-04-13 18:38:00,
2013-04-13 14:43:00,39.9,29.8,30.02,SSW,209,12.0,21.0,67,0.00,,,0.00,Wunderground v.1.15,2013-04-13 18:43:00,
2013-04-13 14:49:00,40.0,31.4,30.02,North,11,13.0,21.0,71,0.00,,,0.00,Wunderground v.1.15,2013-04-13 18:49:00,
2013-04-13 14:55:00,40.2,30.5,30.02,WNW,297,12.0,21.0,68,0.00,,,0.00,Wunderground v.1.15,2013-04-13 18:55:00,
2013-04-13 15:00:00,40.4,30.3,30.02,SSW,196,11.0,11.0,67,0.00,,,0.00,Wunderground v.1.15,2013-04-13 19:00:00,
2013-04-13 15:05:00,40.1,30.7,30.03,NNW,339,10.0,15.0,69,0.00,,,0.00,Wunderground v.1.15,2013-04-13 19:05:00,
2013-04-13 15:11:00,39.8,30.1,30.03,SSW,198,13.0,15.0,68,0.00,,,0.00,Wunderground v.1.15,2013-04-13 19:11:00,
2013-04-13 15:17:00,39.9,30.2,30.02,SW,226,12.0,22.0,68,0.00,,,0.00,Wunderground v.1.15,2013-04-13 19:17:00,
2013-04-13 15:23:00,40.1,30.4,30.03,WSW,243,11.0,18.0,68,0.00,,,0.00,Wunderground v.1.15,2013-04-13 19:23:00,
2013-04-13 15:28:00,40.0,30.6,30.03,North,352,12.0,19.0,69,0.00,,,0.00,Wunderground v.1.15,2013-04-13 19:28:00,
2013-04-13 15:33:00,40.1,30.7,30.03,SSW,205,12.0,29.0,69,0.00,,,0.00,Wunderground v.1.15,2013-04-13 19:33:00,
2013-04-13 15:39:00,40.1,31.4,30.03,West,266,13.0,29.0,71,0.00,,,0.00,Wunderground v.1.15,2013-04-13 19:39:00,
2013-04-13 15:45:00,40.4,31.4,30.03,SW,228,13.0,29.0,70,0.00,,,0.00,Wunderground v.1.15,2013-04-13 19:45:00,
2013-04-13 15:50:00,40.9,32.6,30.03,West,259,13.0,13.0,72,0.00,,,0.00,Wunderground v.1.15,2013-04-13 19:50:00,
2013-04-13 15:55:00,41.1,31.0,30.03,West,260,11.0,29.0,67,0.00,,,0.00,Wunderground v.1.15,2013-04-13 19:55:00,
2013-04-13 16:00:00,41.6,31.8,30.02,WSW,243,11.0,22.0,68,0.00,,,0.00,Wunderground v.1.15,2013-04-13 20:00:00,
2013-04-13 16:06:00,41.7,31.9,30.03,SSE,153,10.0,22.0,68,0.00,,,0.00,Wunderground v.1.15,2013-04-13 20:06:00,
2013-04-13 16:12:00,42.2,31.3,30.03,NNW,335,11.0,15.0,65,0.00,,,0.00,Wunderground v.1.15,2013-04-13 20:12:00,
2013-04-13 16:17:00,42.5,32.3,30.02,SW,236,11.0,15.0,67,0.00,,,0.00,Wunderground v.1.15,2013-04-13 20:17:00,
2013-04-13 16:22:00,43.5,33.3,30.03,West,280,10.0,14.0,67,0.00,,,0.00,Wunderground v.1.15,2013-04-13 20:22:00,
2013-04-13 16:28:00,43.5,31.7,30.03,SW,235,11.0,16.0,63,0.00,,,0.00,Wunderground v.1.15,2013-04-13 20:28:00,
2013-04-13 16:34:00,42.9,31.2,30.03,SE,143,13.0,24.0,63,0.00,,,0.00,Wunderground v.1.15,2013-04-13 20:34:00,
2013-04-13 16:40:00,43.5,31.7,30.03,SSE,167,13.0,13.0,63,0.00,,,0.00,Wunderground v.1.15,2013-04-13 20:40:00,
2013-04-13 16:45:00,43.3,32.3,30.03,WSW,253,12.0,24.0,65,0.00,,,0.00,Wunderground v.1.15,2013-04-13 20:45:00,
2013-04-13 16:52:00,42.6,31.3,30.03,WNW,293,12.0,24.0,64,0.00,,,0.00,Wunderground v.1.15,2013-04-13 20:52:00,
2013-04-13 16:58:00,42.4,31.8,30.03,WNW,287,9.0,24.0,66,0.00,,,0.00,Wunderground v.1.15,2013-04-13 20:58:00,
2013-04-13 17:04:00,42.9,32.3,30.03,East,82,7.0,8.0,66,0.00,,,0.00,Wunderground v.1.15,2013-04-13 21:04:00,
2013-04-13 17:09:00,43.1,32.9,30.03,NW,312,7.0,8.0,67,0.00,,,0.00,Wunderground v.1.15,2013-04-13 21:09:00,
2013-04-13 17:14:00,43.3,31.9,30.02,East,89,7.0,16.0,64,0.00,,,0.00,Wunderground v.1.15,2013-04-13 21:14:00,
2013-04-13 17:20:00,42.7,32.1,30.03,WSW,256,10.0,10.0,66,0.00,,,0.00,Wunderground v.1.15,2013-04-13 21:20:00,
2013-04-13 17:27:00,42.5,31.6,30.03,West,267,9.0,12.0,65,0.00,,,0.00,Wunderground v.1.15,2013-04-13 21:27:00,
2013-04-13 17:33:00,42.5,32.3,30.03,SSW,211,7.0,24.0,67,0.00,,,0.00,Wunderground v.1.15,2013-04-13 21:33:00,
2013-04-13 17:39:00,42.7,33.2,30.03,West,281,7.0,24.0,69,0.00,,,0.00,Wunderground v.1.15,2013-04-13 21:39:00,
2013-04-13 17:44:00,42.8,32.6,30.03,SW,225,9.0,24.0,67,0.00,,,0.00,Wunderground v.1.15,2013-04-13 21:44:00,
2013-04-13 17:50:00,42.9,33.1,30.03,WSW,240,10.0,10.0,68,0.00,,,0.00,Wunderground v.1.15,2013-04-13 21:50:00,
2013-04-13 17:55:00,42.9,32.3,30.03,NNW,340,10.0,24.0,66,0.00,,,0.00,Wunderground v.1.15,2013-04-13 21:55:00,
2013-04-13 18:00:00,43.2,33.0,30.02,NW,304,9.0,9.0,67,0.00,,,0.00,Wunderground v.1.15,2013-04-13 22:00:00,
2013-04-13 18:06:00,43.5,33.3,30.03,WSW,240,9.0,11.0,67,0.00,,,0.00,Wunderground v.1.15,2013-04-13 22:06:00,
2013-04-13 18:12:00,43.5,32.9,30.02,SSW,195,9.0,9.0,66,0.00,,,0.00,Wunderground v.1.15,2013-04-13 22:12:00,
2013-04-13 18:18:00,44.1,32.7,30.03,WNW,285,9.0,11.0,64,0.00,,,0.00,Wunderground v.1.15,2013-04-13 22:18:00,
2013-04-13 18:24:00,44.0,32.6,30.03,SSE,162,8.0,11.0,64,0.00,,,0.00,Wunderground v.1.15,2013-04-13 22:24:00,
2013-04-13 18:30:00,43.6,32.6,30.02,SW,229,9.0,14.0,65,0.00,,,0.00,Wunderground v.1.15,2013-04-13 22:30:00,
2013-04-13 18:36:00,43.5,33.3,30.03,WSW,240,9.0,18.0,67,0.00,,,0.00,Wunderground v.1.15,2013-04-13 22:36:00,
2013-04-13 18:42:00,43.5,33.6,30.03,WSW,240,7.0,18.0,68,0.00,,,0.00,Wunderground v.1.15,2013-04-13 22:42:00,
2013-04-13 18:47:00,43.3,33.4,30.03,SW,214,7.0,18.0,68,0.00,,,0.00,Wunderground v.1.15,2013-04-13 22:47:00,
2013-04-13 18:53:00,43.3,33.4,30.03,WSW,240,8.0,18.0,68,0.00,,,0.00,Wunderground v.1.15,2013-04-13 22:53:00,
2013-04-13 18:59:00,43.3,33.1,30.03,South,190,7.0,18.0,67,0.00,,,0.00,Wunderground v.1.15,2013-04-13 22:59:00,
2013-04-13 19:05:00,43.2,33.3,30.03,WNW,285,8.0,12.0,68,0.00,,,0.00,Wunderground v.1.15,2013-04-13 23:05:00,
2013-04-13 19:10:00,43.2,33.3,30.03,SW,228,9.0,9.0,68,0.00,,,0.00,Wunderground v.1.15,2013-04-13 23:10:00,
2013-04-13 19:16:00,43.2,33.7,30.03,SW,225,7.0,9.0,69,0.00,,,0.00,Wunderground v.1.15,2013-04-13 23:16:00,
2013-04-13 19:22:00,43.2,34.1,30.03,West,263,6.0,8.0,70,0.00,,,0.00,Wunderground v.1.15,2013-04-13 23:22:00,
2013-04-13 19:27:00,43.1,34.0,30.03,South,180,7.0,8.0,70,0.00,,,0.00,Wunderground v.1.15,2013-04-13 23:27:00,
2013-04-13 19:33:00,43.1,33.6,30.03,SW,214,7.0,22.0,69,0.00,,,0.00,Wunderground v.1.15,2013-04-13 23:33:00,
2013-04-13 19:39:00,43.1,33.6,30.02,WSW,237,7.0,22.0,69,0.00,,,0.00,Wunderground v.1.15,2013-04-13 23:39:00,
2013-04-13 19:45:00,43.1,33.3,30.02,West,260,8.0,22.0,68,0.00,,,0.00,Wunderground v.1.15,2013-04-13 23:45:00,
2013-04-13 19:51:00,43.0,33.5,30.02,SSW,205,8.0,22.0,69,0.00,,,0.00,Wunderground v.1.15,2013-04-13 23:51:00,
2013-04-13 19:57:00,43.1,34.0,30.02,WSW,240,6.0,22.0,70,0.00,,,0.00,Wunderground v.1.15,2013-04-13 23:57:00,
2013-04-13 20:03:00,43.0,33.9,30.02,SW,222,5.0,5.0,70,0.00,,,0.00,Wunderground v.1.15,2013-04-14 00:03:00,
2013-04-13 20:08:00,42.8,33.7,30.02,SW,228,5.0,7.0,70,0.00,,,0.00,Wunderground v.1.15,2013-04-14 00:08:00,
2013-04-13 20:14:00,42.6,33.9,30.02,SSW,203,4.0,6.0,71,0.00,,,0.00,Wunderground v.1.15,2013-04-14 00:14:00,
2013-04-13 20:19:00,42.5,33.8,30.02,SW,220,4.0,6.0,71,0.00,,,0.00,Wunderground v.1.15,2013-04-14 00:19:00,
2013-04-13 20:25:00,42.4,33.7,30.02,SW,219,5.0,5.0,71,0.00,,,0.00,Wunderground v.1.15,2013-04-14 00:25:00,
2013-04-13 20:32:00,42.2,33.8,30.03,SW,229,4.0,15.0,72,0.00,,,0.00,Wunderground v.1.15,2013-04-14 00:32:00,
2013-04-13 20:37:00,42.1,33.7,30.03,SW,231,4.0,15.0,72,0.00,,,0.00,Wunderground v.1.15,2013-04-14 00:37:00,
2013-04-13 20:43:00,42.0,33.6,30.03,SW,224,4.0,15.0,72,0.00,,,0.00,Wunderground v.1.15,2013-04-14 00:43:00,
2013-04-13 20:49:00,42.0,34.0,30.03,SSW,211,4.0,15.0,73,0.00,,,0.00,Wunderground v.1.15,2013-04-14 00:49:00,
2013-04-13 20:55:00,41.9,34.2,30.03,SW,219,4.0,15.0,74,0.00,,,0.00,Wunderground v.1.15,2013-04-14 00:55:00,
2013-04-13 21:00:00,41.7,34.0,30.03,SW,228,4.0,6.0,74,0.00,,,0.00,Wunderground v.1.15,2013-04-14 01:00:00,
2013-04-13 21:06:00,41.7,34.0,30.03,SW,229,4.0,6.0,74,0.00,,,0.00,Wunderground v.1.15,2013-04-14 01:06:00,
2013-04-13 21:11:00,41.5,33.8,30.03,SW,231,4.0,5.0,74,0.00,,,0.00,Wunderground v.1.15,2013-04-14 01:11:00,
2013-04-13 21:17:00,41.4,33.7,30.03,SW,214,4.0,5.0,74,0.00,,,0.00,Wunderground v.1.15,2013-04-14 01:17:00,
2013-04-13 21:23:00,41.3,33.6,30.04,SW,217,3.0,5.0,74,0.00,,,0.00,Wunderground v.1.15,2013-04-14 01:23:00,
2013-04-13 21:28:00,41.1,33.8,30.04,SSW,212,3.0,5.0,75,0.00,,,0.00,Wunderground v.1.15,2013-04-14 01:28:00,
2013-04-13 21:34:00,40.9,33.6,30.04,SSW,207,3.0,8.0,75,0.00,,,0.00,Wunderground v.1.15,2013-04-14 01:34:00,
2013-04-13 21:39:00,40.8,33.5,30.04,SSW,207,3.0,8.0,75,0.00,,,0.00,Wunderground v.1.15,2013-04-14 01:39:00,
2013-04-13 21:44:00,40.6,33.6,30.04,SW,228,3.0,8.0,76,0.00,,,0.00,Wunderground v.1.15,2013-04-14 01:44:00,
2013-04-13 21:50:00,40.2,33.6,30.04,SSW,200,3.0,8.0,77,0.00,,,0.00,Wunderground v.1.15,2013-04-14 01:50:00,
2013-04-13 21:55:00,40.0,33.4,30.04,SW,214,3.0,8.0,77,0.00,,,0.00,Wunderground v.1.15,2013-04-14 01:55:00,
2013-04-13 22:00:00,39.8,33.5,30.04,SSW,203,3.0,3.0,78,0.00,,,0.00,Wunderground v.1.15,2013-04-14 02:00:00,
2013-04-13 22:06:00,39.6,33.3,30.03,SSW,192,3.0,3.0,78,0.00,,,0.00,Wunderground v.1.15,2013-04-14 02:06:00,
2013-04-13 22:12:00,39.4,33.4,30.04,SSW,193,2.0,2.0,79,0.00,,,0.00,Wunderground v.1.15,2013-04-14 02:12:00,
2013-04-13 22:18:00,39.2,33.2,30.04,SSW,209,1.0,3.0,79,0.00,,,0.00,Wunderground v.1.15,2013-04-14 02:18:00,
2013-04-13 22:24:00,39.2,33.2,30.04,SW,225,1.0,1.0,79,0.00,,,0.00,Wunderground v.1.15,2013-04-14 02:24:00,
2013-04-13 22:30:00,39.1,33.1,30.04,SW,231,1.0,1.0,79,0.00,,,0.00,Wunderground v.1.15,2013-04-14 02:30:00,
2013-04-13 22:37:00,39.0,33.4,30.04,South,184,1.0,7.0,80,0.00,,,0.00,Wunderground v.1.15,2013-04-14 02:37:00,
2013-04-13 22:43:00,38.9,33.3,30.04,SE,145,1.0,7.0,80,0.00,,,0.00,Wunderground v.1.15,2013-04-14 02:43:00,
2013-04-13 22:49:00,38.8,33.5,30.04,SE,143,1.0,7.0,81,0.00,,,0.00,Wunderground v.1.15,2013-04-14 02:49:00,
2013-04-13 22:54:00,38.9,33.6,30.04,South,186,2.0,7.0,81,0.00,,,0.00,Wunderground v.1.15,2013-04-14 02:54:00,
2013-04-13 23:00:00,39.0,33.7,30.04,South,186,2.0,2.0,81,0.00,,,0.00,Wunderground v.1.15,2013-04-14 03:00:00,
2013-04-13 23:07:00,38.9,33.6,30.04,SSE,167,1.0,2.0,81,0.00,,,0.00,Wunderground v.1.15,2013-04-14 03:07:00,
2013-04-13 23:13:00,38.8,33.8,30.04,SSE,149,2.0,2.0,82,0.00,,,0.00,Wunderground v.1.15,2013-04-14 03:13:00,
2013-04-13 23:18:00,38.7,33.7,30.04,South,173,2.0,2.0,82,0.00,,,0.00,Wunderground v.1.15,2013-04-14 03:18:00,
2013-04-13 23:24:00,38.9,33.9,30.04,SSW,202,1.0,2.0,82,0.00,,,0.00,Wunderground v.1.15,2013-04-14 03:24:00,
2013-04-13 23:30:00,39.0,33.7,30.04,SSE,165,1.0,1.0,81,0.00,,,0.00,Wunderground v.1.15,2013-04-14 03:30:00,
2013-04-13 23:35:00,39.1,34.1,30.04,SSW,201,1.0,4.0,82,0.00,,,0.00,Wunderground v.1.15,2013-04-14 03:35:00,
2013-04-13 23:41:00,39.1,34.1,30.04,South,188,1.0,4.0,82,0.00,,,0.00,Wunderground v.1.15,2013-04-14 03:41:00,
2013-04-13 23:47:00,39.2,33.9,30.03,SSE,165,1.0,4.0,81,0.00,,,0.00,Wunderground v.1.15,2013-04-14 03:47:00,
2013-04-13 23:53:00,39.5,34.2,30.04,SSW,204,1.0,4.0,81,0.00,,,0.00,Wunderground v.1.15,2013-04-14 03:53:00,
2013-04-13 23:59:00,39.8,34.4,30.04,SSW,199,2.0,4.0,81,0.00,,,0.00,Wunderground v.1.15,2013-04-14 03:59:00,